Weather History for KFZY - April, 2013

Change the Weather History Date:

Monday, April 8, 2013

  Actual Average (KSYR) Record (KSYR)
Temperature  
Mean Temperature 45 °F 44 °F  
Max Temperature 55 °F 54 °F 84 °F (2010)
Min Temperature 35 °F 34 °F 15 °F (1972)
Degree Days  
Heating Degree Days 20 21  
Month to date heating degree days 182  
Since 1 July heating degree days 5970  
Cooling Degree Days 0 0  
Month to date cooling degree days 0  
Year to date cooling degree days 0  
Moisture  
Dew Point 35 °F    
Average Humidity 66    
Maximum Humidity 87    
Minimum Humidity 47    
Precipitation  
Precipitation 0.05 in 0.11 in 0.84 in (2000)
Month to date precipitation 0.89  
Year to date precipitation 8.41  
Snow  
Snow 0.00 in 0.20 in 4.30 in (1956)
Month to date snowfall 1.7  
Since 1 July snowfall 121.6  
Snow Depth -    
Sea Level Pressure  
Sea Level Pressure 30.03 in    
Wind  
Wind Speed 4 mph (SE)    
Max Wind Speed 9 mph    
Max Gust Speed 20 mph    
Visibility 10 miles    
Events Rain    
T = Trace of Precipitation, MM = Missing Value Source: NWS Daily Summary

Daily Weather History Graph

Daily Weather History Graph

Search for Another Location

Airport or City:

Trip Planner

Search our weather history database for the weather conditions in past years. The results will help you decide how hot, cold, wet, or windy it might be!

Date:

Astronomy

Apr. 08, 2013 Rise Set
Actual Time 6:34 AM EDT 7:40 PM EDT
Civil Twilight 6:05 AM EDT 8:09 PM EDT
Nautical Twilight 5:30 AM EDT 8:44 PM EDT
Astronomical Twilight 4:53 AM EDT 9:21 PM EDT
Moon 5:26 AM EDT (4/8) 6:11 PM EDT (4/8)
Length of Visible Light 14h 04m
Length of Day
13h 05m
Waning Crescent, 3% of the Moon is Illuminated
Apr 8
Waning Crescent
Apr 10
New
Apr 18
First Quarter
Apr 25
Full
May 2
Last Quarter

Hourly Weather History & Observations

Time (EDT) Temp. Windchill Dew Point Humidity Pressure Visibility Wind Dir Wind Speed Gust Speed Precip Events Conditions
12:54 AM 41.0 °F 36.4 °F 32.0 °F 70% 30.04 in 10.0 mi WNW 6.9 mph - N/A   Overcast
1:54 AM 41.0 °F 38.0 °F 33.1 °F 73% 30.06 in 10.0 mi WNW 4.6 mph - N/A   Overcast
2:54 AM 39.0 °F 35.7 °F 33.1 °F 79% 30.06 in 10.0 mi WNW 4.6 mph - N/A   Mostly Cloudy
3:54 AM 36.0 °F 33.3 °F 30.9 °F 82% 30.06 in 10.0 mi West 3.5 mph - N/A   Clear
4:19 AM 35.6 °F - 30.2 °F 81% 30.07 in 10.0 mi Calm Calm - N/A   Mostly Cloudy
4:54 AM 37.9 °F - 33.1 °F 83% 30.08 in 10.0 mi Calm Calm - N/A   Overcast
5:20 AM 37.4 °F 34.9 °F 33.8 °F 87% 30.08 in 10.0 mi SW 3.5 mph - N/A   Overcast
5:54 AM 37.9 °F - 34.0 °F 86% 30.09 in 10.0 mi Calm Calm - N/A   Overcast
6:54 AM 37.9 °F - 34.0 °F 86% 30.10 in 10.0 mi Calm Calm - N/A   Overcast
7:54 AM 39.9 °F - 34.0 °F 79% 30.12 in 10.0 mi Calm Calm - N/A   Overcast
8:54 AM 41.0 °F - 34.0 °F 76% 30.14 in 10.0 mi Calm Calm - N/A   Overcast
9:54 AM 43.0 °F - 34.0 °F 71% 30.14 in 10.0 mi Calm Calm - N/A   Overcast
10:54 AM 46.0 °F - 32.0 °F 58% 30.14 in 10.0 mi Calm Calm - N/A   Overcast
11:02 AM 46.4 °F 44.3 °F 32.0 °F 57% 30.13 in 10.0 mi Variable 4.6 mph - N/A   Overcast
11:54 AM 46.9 °F - 33.1 °F 59% 30.13 in 10.0 mi SE 3.5 mph - N/A   Overcast
12:14 PM 48.2 °F - 33.8 °F 58% 30.12 in 10.0 mi Variable 5.8 mph - N/A   Overcast
12:54 PM 51.1 °F - 34.0 °F 52% 30.11 in 10.0 mi South 8.1 mph - N/A   Partly Cloudy
1:54 PM 52.0 °F - 34.0 °F 50% 30.07 in 10.0 mi East 9.2 mph - N/A   Clear
2:54 PM 53.1 °F - 34.0 °F 48% 30.04 in 10.0 mi SSE 5.8 mph - N/A   Clear
3:54 PM 55.0 °F - 35.1 °F 47% 30.01 in 10.0 mi Variable 4.6 mph - N/A   Clear
4:54 PM 54.0 °F - 34.0 °F 47% 29.98 in 10.0 mi ESE 5.8 mph - N/A   Clear
5:54 PM 55.9 °F - 36.0 °F 47% 29.95 in 10.0 mi Variable 5.8 mph - N/A   Clear
6:54 PM 55.9 °F - 36.0 °F 47% 29.95 in 10.0 mi ESE 4.6 mph - 0.00 in Rain Light Rain
7:54 PM 53.1 °F - 37.9 °F 57% 29.91 in 10.0 mi East 6.9 mph - 0.01 in   Overcast
8:54 PM 50.0 °F - 41.0 °F 71% 29.90 in 10.0 mi East 6.9 mph - 0.03 in Rain Light Rain
9:54 PM 51.1 °F - 41.0 °F 68% 29.84 in 10.0 mi ESE 8.1 mph 19.6 mph 0.01 in   Overcast
10:54 PM 53.1 °F - 39.0 °F 59% 29.81 in 10.0 mi ESE 9.2 mph - 0.00 in Rain Light Rain
11:54 PM 52.0 °F - 37.9 °F 59% 29.79 in 10.0 mi ESE 9.2 mph - 0.00 in   Mostly Cloudy